Погода в Константиновке

Украина / Херсонская область     46°49′41″N   33°51′55″E
темп.,
°C
ветер,
м/с
пор.,
м/с
влажн.,
%
обл.,
%
осадки,
мм/ч
давл.,
гПа
погр.,
м
13 мая, чт
чт1300:00+8ююз336878 0.0 101228
03:00+7ююз227528 0.0 101211
06:00+7юв01785 0.0 101210
09:00+14юв33535 0.0 1012577
12:00+19юв3342100 0.0 10121149
15:00+19юв344445 0.0 10111098
18:00+20юв544981 0.0 10111203
21:00+14вюв4869100 0.0 1011149
14 мая, пт
пт1400:00+11вюв477498 0.0 1009114
03:00+11ююв22910 0.0 100918
06:00+11ю339486 0.0 100934
09:00+18ююз4654100 0.0 1009518
12:00+22ююз6845100 0.0 1010986
15:00+22ююз7848100 0.0 10101119
18:00+21ююз5756100 0.0 1010889
21:00+14ююз48810 0.0 1011128
15 мая, сб
сб1500:00+12юз47815 0.0 101298
03:00+12ююз47890 0.0 1013114
06:00+13юз368558 0.0 1013116
09:00+19юз4659100 0.0 1014546
12:00+23юз454581 0.0 10141724
15:00+25юз4539100 0.0 10132024
18:00+23юз33405 0.0 10131702
21:00+17ююз335993 0.0 101330
16 мая, вс
вс1600:00+15сз01720 0.0 101311
03:00+14ссв337442 0.0 101218
06:00+14св4678100 0.0 1012109
09:00+21всв465876 0.0 1011444
12:00+25всв5544100 0.0 10101268
15:00+28всв4541100 0.0 10072182
18:00+26св5757100 0.0 1005537
21:00+19в2284100 2.7 100516
17 мая, пн
пн1700:00+18вюв2282100 1.4 100412
03:00+17вюв3389100 2.1 100361
06:00+17з2390100 0.9 100155
09:00+21юв227689 1.4 1003479
12:00+25юз445887 0.7 10031282
15:00+24зюз566096 3.9 10041305
18:00+23зюз6857100 0.1 10051271
21:00+16юз59755 0.1 1008194